Weather in Bezopasnoye

Russia / Stavropol Krai     45°38′30″N   41°56′31″E
temp.,
°C
wind,
m/s
gust,
m/s
humid.,
%
clouds,
%
prec.,
mm/h
press.,
hPa
HPBL,
m
27 october, wed
wed2700:00+1e37645 0.0 1033144
03:00+1e48670 0.0 1032156
06:000e410690 0.0 1031197
09:00+4ese610565 0.0 1030417
12:00+10ese68400 0.0 1028780
15:00+11ese67340 0.0 1026884
18:00+7ese49500 0.0 1025172
21:00+5ese48580 0.0 1025164
28 october, thu
thu2800:00+3ese47650 0.0 1024133
03:00+3s22720 0.0 102318
06:00+3wsw22780 0.0 102321
09:00+6wsw35600 0.0 1024273
12:00+11w57440 0.0 1023765
15:00+12wnw56380 0.0 10221050
18:00+8wnw3452100 0.0 102360
21:00+7w3455100 0.0 102359
29 october, fri
fri2900:00+7w3655100 0.0 1023135
03:00+6w375588 0.0 1023171
06:00+5wsw366081 0.0 1024126
09:00+8w4757100 0.0 1025285
12:00+7wsw3773100 0.1 1025308
15:00+8w3577100 0.3 1026376
18:00+7wnw229394 0.3 102781
21:00+8nne119267 0.3 102822
30 october, sat
sat3000:00+6ne2295100 0.0 102931
03:00+8ne369493 0.0 1030270
06:00+5ne479612 0.0 1031162
09:00+8ene688392 0.0 1032533
12:00+11e676676 0.0 1031957
15:00+12e685753 0.0 10311208
18:00+9ene511645 0.0 1032259
21:00+7ene511705 0.0 1032259
31 october, sun
sun3100:00+7e513800 0.0 1032321
03:00+6e513820 0.0 1031310
06:00+5e513850 0.0 1031315
09:00+8e713750 0.0 1031580
12:00+13e912460 0.0 10291147
15:00+14e811440 0.0 10271256
18:00+11e714550 0.0 1027526
21:00+9e614684 0.0 1026399